Regional Weather Roundup
Issued by NWS

Home | Current Version | Previous Version | Text Only | Print | Product List | Glossary Off
Versions: 1 2 3 4 5 6 7 8 9 10 11 12 13 14 15 16 17 18 19 20 21 22 23 24 25 26 27

000
ASUS45 KSLC 301110
RWRUT

UTAH REGIONAL WEATHER ROUNDUP
NATIONAL WEATHER SERVICE SALT LAKE CITY UT
500 AM MDT SAT APR 30 2016

UTZ001>011-023>025-301200-

NORTHERN UTAH

CITY           SKY/WX    TMP DP  RH WIND       PRES   REMARKS
BRIGHAM CITY   MOCLDY    43  37  81 CALM      29.89S
HILL AFB       PTCLDY    41  36  81 E15       29.87S
LOGAN          MOCLDY    39  37  92 CALM      29.91R
OGDEN          PTCLDY    40  36  86 S3        29.87R
PROVO AIRPORT  CLEAR     37  30  75 CALM      29.87R
SALT LAKE CITY MOCLDY    46  39  76 N3        29.87R
VERNAL         CLOUDY    34  29  82 CALM      29.89R
WENDOVER       PTCLDY    45  36  70 NW8       29.89F
HEBER CITY     CLOUDY    36  34  93 CALM      29.88S

$$

UTZ012>022-026-027-301200-

SOUTHERN/CENTRAL UTAH

CITY           SKY/WX    TMP DP  RH WIND       PRES   REMARKS
BLANDING       CLEAR     33  32  94 N6        29.91S WCI  28
BRYCE CANYON   CLOUDY    34  30  85 N3        29.87R
CEDAR CITY     CLOUDY    40  38  93 NE3       29.82S
DELTA          CLEAR     37  36  93 NE5       29.86R WCI  34
HANKSVILLE     CLEAR     41  39  93 CALM      29.84S
MILFORD        CLOUDY    43  41  93 NE3       29.83F
MOAB/CYNLANDS  CLOUDY    47  42  83 CALM      29.81R
PRICE          CLEAR     37  30  75 N9        29.84S WCI  30
ST GEORGE      CLOUDY    48  43  81 SE5       29.83F
KANAB          CLOUDY    43  41  93 CALM      29.89S

$$

REGIONAL REPORTS     COLORADO/ARIZONA

CITY           SKY/WX    TMP DP  RH WIND       PRES   REMARKS
CRAIG, CO      CLOUDY    34  32  92 SW12      29.86S WCI  25
GRAND JUNCTION CLOUDY    40  40 100 NW5       29.84R
RIFLE          CLOUDY    41  32  70 NW13      29.86R
MONTROSE       CLOUDY    41  35  79 S3        29.86R
CORTEZ         CLEAR     30  28  92 NE5       29.86R WCI  25
PAGE, AZ       CLOUDY    51  38  60 S7        29.82R
GRAND CANYON   CLOUDY    39  34  82 E5        29.84F
KINGMAN        PTCLDY    55  35  47 S9        29.72S
FLAGSTAFF      CLOUDY    37  36  96 CALM      29.88F

$$

REGIONAL REPORTS    NEVADA/IDAHO/WYOMING

CITY           SKY/WX    TMP DP  RH WIND       PRES   REMARKS
LAS VEGAS, NV  CLOUDY    54  40  59 NW26G40   29.70R
ELY            CLOUDY    36  35  96 N15       29.88F WCI  27
ELKO           MOCLDY    39  35  86 CALM      29.94R
POCATELLO, ID  CLEAR     33  32  96 SW5       29.95R WCI  29
BURLEY         CLOUDY    42  37  82 W12       29.95R
EVANSTON, WY   CLOUDY    32  27  81 NE6       29.93R WCI  26
ROCK SPRINGS   LGT SNOW  31  28  89 NE12      29.96R FOG     WCI  22
KEMMERER       FLURRIES  32  28  86 CALM      29.95S

$$




USA.gov is the U.S. government's official web portal to all federal, state and local government web resources and services.